Weather History for KTVC - July, 2013

Change the Weather History Date:

Saturday, July 6, 2013

  Actual Average Record
Temperature  
Mean Temperature 79 °F 69 °F  
Max Temperature 90 °F 80 °F 99 °F (1988)
Min Temperature 67 °F 57 °F 31 °F (1965)
Degree Days  
Heating Degree Days 0 1  
Month to date heating degree days 5 7  
Since 1 June heating degree days 107 119  
Since 1 July heating degree days 5 7  
Cooling Degree Days 14 5  
Month to date cooling degree days 36 30  
Year to date cooling degree days 165 131  
Since 1 June cooling degree days 123 111  
Growing Degree Days 29 (Base 50)    
Moisture  
Dew Point 59 °F    
Average Humidity 55    
Maximum Humidity 76    
Minimum Humidity 34    
Precipitation  
Precipitation 0.00 in 0.10 in 0.98 in (1934)
Month to date precipitation T 0.56  
Year to date precipitation 13.76 15.27  
Sea Level Pressure  
Sea Level Pressure 30.00 in    
Wind  
Wind Speed 6 mph (WSW)    
Max Wind Speed 15 mph    
Max Gust Speed 21 mph    
Visibility 9 miles    
Events      
T = Trace of Precipitation, MM = Missing Value Source: NWS Daily Summary

Daily Weather History Graph

Daily Weather History Graph

Search for Another Location

Airport or City:

Trip Planner

Search our weather history database for the weather conditions in past years. The results will help you decide how hot, cold, wet, or windy it might be!

Date:

Astronomy

Jul. 06, 2013 Rise Set
Actual Time 6:03 AM EDT 9:30 PM EDT
Civil Twilight 5:27 AM EDT 10:06 PM EDT
Nautical Twilight 4:39 AM EDT 10:54 PM EDT
Astronomical Twilight 3:38 AM EDT 11:55 PM EDT
Moon 4:51 AM EDT (7/6) 8:08 PM EDT (7/6)
Length of Visible Light 16h 39m
Length of Day
15h 26m
Waning Crescent, 2% of the Moon is Illuminated
Jul 6
Waning Crescent
Jul 8
New
Jul 15
First Quarter
Jul 22
Full
Jul 29
Last Quarter

Hourly Weather History & Observations

Time (EDT) Temp. Heat Index Dew Point Humidity Pressure Visibility Wind Dir Wind Speed Gust Speed Precip Events Conditions
12:53 AM 71.1 °F - 55.9 °F 59% 30.02 in 10.0 mi Calm Calm - N/A   Clear
1:53 AM 70.0 °F - 55.9 °F 61% 30.02 in 10.0 mi Variable 4.6 mph - N/A   Clear
2:53 AM 70.0 °F - 55.0 °F 59% 30.02 in 10.0 mi SW 3.5 mph - N/A   Clear
3:53 AM 68.0 °F - 57.0 °F 68% 30.03 in 10.0 mi Calm Calm - N/A   Clear
4:53 AM 68.0 °F - 57.9 °F 70% 30.03 in 9.0 mi SSW 3.5 mph - N/A   Clear
5:53 AM 68.0 °F - 60.1 °F 76% 30.03 in 8.0 mi Variable 3.5 mph - N/A   Clear
6:53 AM 68.0 °F - 60.1 °F 76% 30.03 in 7.0 mi SSW 4.6 mph - N/A   Mostly Cloudy
7:53 AM 71.1 °F - 62.1 °F 73% 30.04 in 7.0 mi Variable 3.5 mph - N/A   Mostly Cloudy
8:53 AM 75.0 °F - 62.1 °F 64% 30.03 in 7.0 mi SW 6.9 mph - N/A   Mostly Cloudy
9:53 AM 80.1 °F 81.5 °F 63.0 °F 56% 30.03 in 8.0 mi WSW 6.9 mph - N/A   Mostly Cloudy
10:53 AM 82.0 °F 82.4 °F 60.1 °F 47% 30.02 in 10.0 mi SW 9.2 mph - N/A   Mostly Cloudy
11:53 AM 84.9 °F 84.4 °F 59.0 °F 41% 30.02 in 10.0 mi WSW 10.4 mph 19.6 mph N/A   Mostly Cloudy
12:53 PM 86.0 °F 85.0 °F 57.9 °F 38% 30.02 in 10.0 mi WSW 6.9 mph 19.6 mph N/A   Mostly Cloudy
1:53 PM 87.1 °F 86.1 °F 57.9 °F 37% 30.00 in 10.0 mi West 8.1 mph 18.4 mph N/A   Mostly Cloudy
2:53 PM 89.1 °F 88.0 °F 57.9 °F 35% 29.99 in 10.0 mi Variable 6.9 mph 20.7 mph N/A   Scattered Clouds
3:53 PM 90.0 °F 89.1 °F 59.0 °F 35% 29.98 in 10.0 mi WSW 9.2 mph - N/A   Scattered Clouds
4:53 PM 89.1 °F 87.7 °F 57.0 °F 34% 29.97 in 10.0 mi West 10.4 mph 17.3 mph N/A   Scattered Clouds
5:53 PM 89.1 °F 88.0 °F 57.9 °F 35% 29.96 in 10.0 mi West 6.9 mph - N/A   Scattered Clouds
6:53 PM 87.1 °F 86.1 °F 57.9 °F 37% 29.94 in 10.0 mi West 11.5 mph - N/A   Scattered Clouds
7:53 PM 84.9 °F 84.8 °F 60.1 °F 43% 29.94 in 10.0 mi West 8.1 mph - N/A   Scattered Clouds
8:53 PM 81.0 °F 81.6 °F 60.1 °F 49% 29.94 in 10.0 mi West 9.2 mph - N/A   Scattered Clouds
9:53 PM 78.1 °F - 61.0 °F 56% 29.96 in 10.0 mi SSW 3.5 mph - N/A   Mostly Cloudy
10:53 PM 73.0 °F - 61.0 °F 66% 29.97 in 10.0 mi Calm Calm - N/A   Clear
11:53 PM 72.0 °F - 62.1 °F 71% 29.97 in 10.0 mi SSE 4.6 mph - N/A   Clear